Location: Izdebno
(52.6670°N, 16.2170°E)
Time: 03:54:16
(UTC+02:00)

Transit 4A - Pass Details

Date: 01 March 2024
Orbit: 871 x 972 km, 66.8° (Epoch: 22 April)

Event Time Altitude Azimuth Distance (km) Brightness Sun altitude
Rises 07:31:13 0° 319° (NW) 3,516 10.4 6.5°
Reaches altitude 10° 07:33:49 10° 324° (NW) 2,561 9.7 6.9°
Maximum altitude 07:39:37 55° 42° (NE) 1,048 8.5 7.7°
Drops below altitude 10° 07:45:19 10° 120° (ESE) 2,519 13.1 8.5°
Sets 07:47:51 0° 125° (SE) 3,453 12.9 8.8°
